Regional Weather Roundup
Issued by NWS Northern Indiana

Home | Current Version | Previous Version | Graphics & Text | Print | Product List | Glossary On
Versions: 1 2 3 4 5 6 7 8 9 10 11 12 13 14 15 16 17 18 19 20 21 22 23 24 25 26 27 28 29 30 31 32 33 34 35 36 37 38 39 40 41 42 43 44 45 46 47 48 49 50
724
ASUS43 KIWX 261310
RWRIWX

KIWX WEATHER ROUNDUP
NATIONAL WEATHER SERVICE NORTHERN INDIANA
900 AM EDT THU MAY 26 2016

NOTE: "FAIR" INDICATES FEW OR NO CLOUDS BELOW 12,000 FEET WITH NO
SIGNIFICANT WEATHER AND/OR OBSTRUCTIONS TO VISIBILITY.

* THESE STATIONS ARE NOT UNDER NWS QUALITY CONTROL. THEY ALSO MAY NOT
  REPORT WEATHER SUCH AS PRECIPITATION OR FOG.

INZ001>027-261400-
NORTHERN INDIANA

CITY           SKY/WX    TMP DP  RH WIND       PRES   REMARKS
GARY*          PTSUNNY   73  73 100 S9        29.94F
VALPARAISO     PTSUNNY   71  66  84 S10       29.97S
MICHIGAN CITY* MOSUNNY   72  70  94 S10       29.96F
LAPORTE*       CLOUDY    73  71  96 SW10      29.97F
KNOX*          MOSUNNY   72  59  64 S12       29.97S
SOUTH BEND     CLOUDY    70  66  87 S10       29.96F
ELKHART*       CLOUDY    72  68  88 SW6       29.98F
GOSHEN         PTSUNNY   72  64  76 SW9       29.98F
MONTICELLO*    CLOUDY    72  64  75 SW13      29.98R HAZE
LOGANSPORT*    CLOUDY    72  64  78 SW10      30.01S
ROCHESTER*     PTSUNNY   73  68  83 SW9       30.00F
WARSAW*        MOSUNNY   72  64  78 SW3       29.99F
ANGOLA*        CLOUDY    72  64  78 SW9       30.01R
FORT WAYNE     MOSUNNY   71  63  75 SW13      30.02S
HUNTINGTON*    MOSUNNY  N/A N/A N/A SW9       30.00F
PERU/GRISSOM   SUNNY     73  67  81 SW10      30.00F
MARION*        MOSUNNY   71  64  78 S10       30.02S

$$
INZ028>050-261400-
CENTRAL INDIANA

CITY           SKY/WX    TMP DP  RH WIND       PRES   REMARKS
LAFAYETTE      CLOUDY    70  65  84 S8        29.99R
KOKOMO*        SUNNY     73  63  68 SW10      30.01S
MUNCIE*        SUNNY     72  63  73 SW7       30.03S
INDIANAPOLIS   CLOUDY    70  64  81 S9        30.01F

$$
MIZ043>046-050>051-056>058-064>065-071>073-077>080-261400-
SOUTHWEST LOWER MICHIGAN

CITY           SKY/WX    TMP DP  RH WIND       PRES   REMARKS
BATTLE CREEK   MOSUNNY   69  65  86 SW10      29.98S
BENTON HARBOR  CLOUDY    70  66  87 S8        29.94F
COLDWATER*     MOSUNNY   72  65  78 SW12      29.99S
HILLSDALE*     MOSUNNY   70  63  80 SW10      30.00S
HOLLAND        MOSUNNY   71  67  87 S13       29.94S
GRAND RAPIDS   CLOUDY    72  65  78 SW13      29.95R
KALAMAZOO      MOSUNNY   71  65  81 SW10      29.97S
STURGIS*       CLOUDY    71  65  83 SW9       29.99R
THREE RIVERS*  PTSUNNY   72  66  81 SW10G17   29.98S

$$
OHZ001>008-015>018-024>025-261400-
NORTHWEST OHIO

CITY           SKY/WX    TMP DP  RH WIND       PRES   REMARKS
WAUSEON*         N/A     73  72  94 SW10G16   30.00S
DEFIANCE       MOSUNNY   72  63  73 SW9       30.01R
FINDLAY        CLOUDY    72  60  66 SW15      30.02S
TOLEDO EXPRESS MOSUNNY   72  63  73 SW8       30.00R
TOLEDO METCALF PTSUNNY   72  63  73 SW10      30.01S
LIMA           MOSUNNY   69  63  81 S7        30.03F

$$
AND FOR LAKE MICHIGAN COASTAL AND OPEN LAKE BUOY OBSERVATIONS

STATION/POSITION TEMP    WIND        PRES    VSBY  WAVE
                 AIR SEA DIR/SP/G                  HT/PER
                 (F)     (DEG/KT/KT) (MB)    (MI)  (FT/S)
CALUMET HARBOR    69     200/ 10/ 14 1013.1S
MICHIGAN CITY     68     160/ 12/ 14   N/A
BURNS HARBOR      69     180/  9/ 17 1014.6R
SAINT JOSEPH      69     170/  4/  9 1014.2F
SOUTH LAKE BUOY   54 49  160/ 12/ 12 1012.6F         2/ 4
4 MI NW BRIDGMAN  63 59  180/  6/  8   N/A           1
MICHIGAN CITY     65 58  200/  8/ 10   N/A           1/ 2

$$
&&




USA.gov is the U.S. government's official web portal to all federal, state and local government web resources and services.